| time (UTC) | temp C | wind direction | speed KPH | gust KPH | rain 1hr cm | rain 24hr cm | rain mn cm | humidity % | barometer mb |
| 20260502163218 | 18 | 5 | 38.6 | 46.7 | 0.00 | 0.00 | 0.00 | 58 | 1019.8 |
| 20260502162538 | 18 | 0 | 30.6 | 43.5 | 0.00 | 0.00 | 0.00 | 60 | 1019.8 |
| 20260502161858 | 18 | 357 | 38.6 | 43.5 | 0.00 | 0.00 | 0.00 | 58 | 1019.5 |
| 20260502161218 | 18 | 7 | 33.8 | 45.1 | 0.00 | 0.00 | 0.00 | 61 | 1019.5 |
| 20260502160538 | 18 | 8 | 35.4 | 49.9 | 0.00 | 0.00 | 0.00 | 63 | 1019.5 |
| 20260502151858 | 17 | 359 | 33.8 | 41.8 | 0.00 | 0.00 | 0.00 | 71 | 1019.5 |
| 20260502151218 | 16 | 1 | 29.0 | 38.6 | 0.00 | 0.00 | 0.00 | 74 | 1019.2 |
| 20260502150538 | 16 | 360 | 29.0 | 35.4 | 0.00 | 0.00 | 0.00 | 74 | 1019.2 |
| 20260502150108 | 16 | 358 | 25.7 | 35.4 | 0.00 | 0.00 | 0.00 | 77 | 1019.5 |
| 20260502130538 | 13 | 347 | 30.6 | 38.6 | 0.00 | 0.00 | 0.00 | 84 | 1018.5 |
| 20260502123432 | 12 | 348 | 32.2 | 38.6 | 0.00 | 0.00 | 0.00 | 86 | 1018.1 |
| 20260502122538 | 12 | 348 | 25.7 | 37.0 | 0.00 | 0.00 | 0.00 | 86 | 1018.1 |
| 20260502121858 | 12 | 343 | 25.7 | 35.4 | 0.00 | 0.00 | 0.00 | 86 | 1018.1 |
| 20260502121218 | 12 | 336 | 29.0 | 35.4 | 0.00 | 0.00 | 0.00 | 86 | 1017.5 |
| 20260502120538 | 13 | 340 | 25.7 | 33.8 | 0.00 | 0.00 | 0.00 | 87 | 1017.5 |
| 20260502115858 | 12 | 342 | 24.1 | 32.2 | 0.00 | 0.00 | 0.00 | 88 | 1017.5 |
| 20260502115430 | 13 | 345 | 17.7 | 29.0 | 0.00 | 0.00 | 0.00 | 90 | 1017.5 |
| 20260502114751 | 12 | 348 | 24.1 | 32.2 | 0.00 | 0.00 | 0.00 | 90 | 1017.1 |
| 20260502113858 | 12 | 353 | 20.9 | 27.4 | 0.00 | 0.00 | 0.00 | 90 | 1017.1 |
| 20260502113427 | 12 | 346 | 20.9 | 33.8 | 0.00 | 0.00 | 0.00 | 90 | 1017.1 |
| 20260502112748 | 13 | 345 | 19.3 | 33.8 | 0.00 | 0.00 | 0.00 | 90 | 1016.8 |
| 20260502111858 | 12 | 349 | 25.7 | 32.2 | 0.00 | 0.00 | 0.00 | 89 | 1016.5 |
| 20260502111218 | 13 | 350 | 24.1 | 32.2 | 0.00 | 0.00 | 0.00 | 89 | 1016.5 |
| 20260502110538 | 13 | 349 | 24.1 | 32.2 | 0.00 | 0.00 | 0.00 | 89 | 1016.5 |
| 20260502110110 | 13 | 348 | 22.5 | 32.2 | 0.00 | 0.00 | 0.00 | 90 | 1016.5 |
| 20260502105218 | 13 | 349 | 19.3 | 29.0 | 0.00 | 0.00 | 0.00 | 90 | 1016.5 |
| 20260502104538 | 13 | 354 | 22.5 | 30.6 | 0.00 | 0.00 | 0.00 | 89 | 1016.5 |
| 20260502103858 | 13 | 350 | 24.1 | 30.6 | 0.00 | 0.00 | 0.00 | 89 | 1016.1 |
| 20260502103428 | 13 | 353 | 22.5 | 32.2 | 0.00 | 0.00 | 0.00 | 89 | 1016.1 |
| 20260502102539 | 13 | 348 | 22.5 | 37.0 | 0.00 | 0.00 | 0.00 | 89 | 1016.1 |
| 20260502101858 | 13 | 348 | 29.0 | 37.0 | 0.00 | 0.00 | 0.00 | 89 | 1015.8 |
| 20260502101218 | 13 | 344 | 24.1 | 33.8 | 0.00 | 0.00 | 0.00 | 91 | 1015.8 |
| 20260502100538 | 13 | 343 | 25.7 | 38.6 | 0.00 | 0.00 | 0.00 | 92 | 1015.4 |
| 20260502091431 | 14 | 343 | 27.4 | 33.8 | 0.00 | 0.00 | 0.00 | 93 | 1015.1 |
| 20260502090538 | 14 | 351 | 25.7 | 33.8 | 0.00 | 0.00 | 0.00 | 93 | 1014.8 |
| 20260502071220 | 14 | 356 | 33.8 | 43.5 | 0.00 | 0.00 | 0.00 | 92 | 1014.8 |
| 20260502070747 | 14 | 2 | 32.2 | 43.5 | 0.00 | 0.00 | 0.00 | 93 | 1015.1 |
| 20260502065858 | 14 | 1 | 27.4 | 38.6 | 0.00 | 0.00 | 0.00 | 92 | 1014.8 |
| 20260502065218 | 14 | 3 | 33.8 | 41.8 | 0.00 | 0.00 | 0.00 | 92 | 1014.8 |
| 20260502064749 | 14 | 6 | 29.0 | 43.5 | 0.00 | 0.00 | 0.00 | 93 | 1014.8 |
| 20260502063858 | 13 | 1 | 33.8 | 43.5 | 0.00 | 0.00 | 0.00 | 93 | 1014.8 |
| 20260502063218 | 13 | 358 | 35.4 | 46.7 | 0.00 | 0.00 | 0.00 | 92 | 1014.8 |
| 20260502062538 | 13 | 355 | 35.4 | 46.7 | 0.00 | 0.00 | 0.00 | 92 | 1014.4 |
| 20260502061859 | 13 | 359 | 29.0 | 48.3 | 0.00 | 0.00 | 0.00 | 93 | 1014.8 |
| 20260502061218 | 13 | 357 | 32.2 | 43.5 | 0.00 | 0.00 | 0.00 | 93 | 1014.4 |
| 20260502060538 | 13 | 355 | 27.4 | 43.5 | 0.00 | 0.00 | 0.00 | 94 | 1014.8 |
| 20260502055858 | 13 | 353 | 29.0 | 45.1 | 0.00 | 0.00 | 0.00 | 94 | 1014.8 |
| 20260502055218 | 13 | 346 | 33.8 | 48.3 | 0.00 | 0.00 | 0.00 | 94 | 1014.8 |
| 20260502054538 | 13 | 344 | 37.0 | 48.3 | 0.00 | 0.00 | 0.00 | 93 | 1014.1 |
| 20260502053858 | 13 | 346 | 35.4 | 49.9 | 0.00 | 0.00 | 0.00 | 93 | 1014.1 |
| 20260502053218 | 14 | 353 | 40.2 | 51.5 | 0.00 | 0.00 | 0.00 | 93 | 1014.4 |
| 20260502052538 | 14 | 351 | 37.0 | 51.5 | 0.00 | 0.00 | 0.00 | 94 | 1013.7 |
| 20260502051858 | 14 | 352 | 33.8 | 48.3 | 0.00 | 0.00 | 0.00 | 94 | 1014.1 |
| 20260502051218 | 14 | 353 | 35.4 | 45.1 | 0.00 | 0.00 | 0.00 | 94 | 1013.7 |
| 20260502050538 | 14 | 353 | 30.6 | 48.3 | 0.00 | 0.00 | 0.00 | 93 | 1013.7 |
| 20260502045858 | 14 | 352 | 38.6 | 54.7 | 0.00 | 0.00 | 1.65 | 93 | 1013.7 |
| 20260502045430 | 14 | 344 | 35.4 | 54.7 | 0.00 | 0.00 | 1.65 | 93 | 1013.4 |
| 20260502044750 | 15 | 348 | 41.8 | 54.7 | 0.00 | 0.00 | 1.65 | 93 | 1013.7 |
| 20260502044111 | 15 | 350 | 37.0 | 46.7 | 0.00 | 0.00 | 1.65 | 93 | 1013.4 |
| 20260502043218 | 15 | 350 | 35.4 | 46.7 | 0.00 | 0.00 | 1.65 | 94 | 1014.1 |
| 20260502042538 | 15 | 350 | 32.2 | 45.1 | 0.00 | 0.00 | 1.65 | 94 | 1014.1 |
| 20260502041858 | 15 | 350 | 35.4 | 41.8 | 0.00 | 0.00 | 1.65 | 94 | 1013.7 |
| 20260502041218 | 15 | 347 | 32.2 | 38.6 | 0.00 | 0.00 | 1.65 | 94 | 1013.7 |
| 20260502040538 | 15 | 351 | 25.7 | 41.8 | 0.00 | 0.00 | 1.65 | 95 | 1013.7 |
| 20260502040110 | 15 | 8 | 32.2 | 41.8 | 0.00 | 0.00 | 1.65 | 95 | 1013.4 |
| 20260502035218 | 15 | 2 | 27.4 | 37.0 | 0.00 | 0.00 | 1.65 | 95 | 1013.4 |
| 20260502034538 | 15 | 349 | 25.7 | 40.2 | 0.00 | 0.00 | 1.65 | 96 | 1013.7 |
| 20260502033858 | 15 | 357 | 33.8 | 45.1 | 0.00 | 0.00 | 1.65 | 95 | 1013.4 |
| 20260502033218 | 15 | 3 | 25.7 | 41.8 | 0.00 | 0.00 | 1.65 | 97 | 1013.4 |
| 20260502032748 | 15 | 360 | 32.2 | 41.8 | 0.00 | 0.00 | 1.65 | 97 | 1013.1 |
| 20260502031858 | 15 | 5 | 29.0 | 43.5 | 0.00 | 0.00 | 1.65 | 97 | 1013.1 |
| 20260502031218 | 15 | 1 | 29.0 | 38.6 | 0.00 | 0.00 | 1.65 | 97 | 1013.1 |
| 20260502030538 | 15 | 359 | 29.0 | 43.5 | 0.00 | 0.00 | 1.65 | 97 | 1012.0 |
| 20260502025858 | 15 | 356 | 33.8 | 40.2 | 0.00 | 0.00 | 1.65 | 97 | 1012.7 |
| 20260502025218 | 15 | 3 | 27.4 | 37.0 | 0.00 | 0.00 | 1.65 | 97 | 1012.7 |
| 20260502024538 | 15 | 359 | 29.0 | 37.0 | 0.00 | 0.00 | 1.65 | 96 | 1013.1 |
| 20260502023858 | 15 | 348 | 24.1 | 33.8 | 0.00 | 0.00 | 1.65 | 98 | 1013.1 |
| 20260502023218 | 15 | 340 | 27.4 | 41.8 | 0.00 | 0.00 | 1.65 | 97 | 1012.7 |
| 20260502022538 | 15 | 353 | 33.8 | 41.8 | 0.00 | 0.00 | 1.65 | 97 | 1012.0 |
| 20260502021858 | 16 | 353 | 32.2 | 38.6 | 0.00 | 0.00 | 1.65 | 98 | 1012.0 |
| 20260502021218 | 16 | 347 | 29.0 | 38.6 | 0.00 | 0.00 | 1.65 | 98 | 1012.4 |
| 20260502020538 | 16 | 344 | 25.7 | 38.6 | 0.00 | 0.00 | 1.65 | 98 | 1012.7 |
| 20260502015858 | 16 | 347 | 30.6 | 41.8 | 0.00 | 0.00 | 1.63 | 98 | 1012.0 |
| 20260502015218 | 16 | 348 | 27.4 | 41.8 | 0.00 | 0.00 | 1.57 | 97 | 1012.0 |
| 20260502014538 | 16 | 351 | 30.6 | 38.6 | 0.00 | 0.00 | 1.55 | 97 | 1012.0 |
| 20260502013858 | 16 | 356 | 32.2 | 38.6 | 0.00 | 0.00 | 1.45 | 96 | 1011.7 |
| 20260502013219 | 16 | 7 | 29.0 | 37.0 | 0.00 | 0.00 | 1.35 | 95 | 1011.7 |
| 20260502012538 | 16 | 352 | 27.4 | 41.8 | 0.00 | 0.00 | 1.27 | 94 | 1011.7 |
| 20260502012110 | 16 | 355 | 32.2 | 40.2 | 0.00 | 0.00 | 1.17 | 95 | 1011.4 |
| 20260502011218 | 16 | 4 | 29.0 | 41.8 | 0.00 | 0.00 | 1.17 | 95 | 1011.0 |
| 20260502010538 | 16 | 350 | 33.8 | 49.9 | 0.00 | 0.00 | 1.17 | 94 | 1011.0 |
| 20260502005858 | 16 | 350 | 33.8 | 53.1 | 0.00 | 0.00 | 1.17 | 95 | 1011.0 |
| 20260502005218 | 16 | 349 | 40.2 | 53.1 | 0.00 | 0.00 | 1.17 | 94 | 1011.0 |
| 20260502004538 | 17 | 335 | 32.2 | 48.3 | 0.00 | 0.00 | 1.17 | 94 | 1011.0 |
| 20260502003858 | 17 | 338 | 40.2 | 48.3 | 0.00 | 0.00 | 1.14 | 93 | 1010.7 |
| 20260502003429 | 17 | 330 | 35.4 | 57.9 | 0.00 | 0.00 | 0.97 | 93 | 1010.7 |
| 20260502002538 | 17 | 355 | 46.7 | 57.9 | 0.00 | 0.00 | 0.94 | 93 | 1009.3 |
| 20260502001858 | 17 | 346 | 37.0 | 51.5 | 0.00 | 0.00 | 0.94 | 95 | 1009.3 |
| 20260502001218 | 17 | 353 | 40.2 | 51.5 | 0.00 | 0.00 | 0.94 | 95 | 1008.3 |
| 20260502000538 | 17 | 3 | 33.8 | 54.7 | 0.00 | 0.00 | 0.94 | 95 | 1008.3 |
| 20260501235858 | 17 | 0 | 37.0 | 48.3 | 0.00 | 0.00 | 0.94 | 95 | 1007.3 |
| 20260501235218 | 17 | 7 | 40.2 | 53.1 | 0.00 | 0.00 | 0.94 | 95 | 1007.3 |
| 20260501234538 | 17 | 360 | 40.2 | 53.1 | 0.00 | 0.00 | 0.94 | 95 | 1008.0 |
| 20260501234109 | 17 | 358 | 29.0 | 56.3 | 0.00 | 0.00 | 0.94 | 96 | 1008.3 |
| 20260501233218 | 17 | 6 | 46.7 | 56.3 | 0.00 | 0.00 | 0.94 | 96 | 1007.6 |
| 20260501232750 | 18 | 2 | 30.6 | 46.7 | 0.00 | 0.00 | 0.94 | 96 | 1008.0 |
| 20260501231858 | 18 | 0 | 33.8 | 54.7 | 0.00 | 0.00 | 0.94 | 95 | 1007.6 |
| 20260501231218 | 18 | 8 | 41.8 | 53.1 | 0.00 | 0.00 | 0.94 | 96 | 1007.3 |
| 20260501230538 | 18 | 6 | 38.6 | 54.7 | 0.00 | 0.00 | 0.94 | 96 | 1007.3 |
| 20260501225858 | 18 | 7 | 33.8 | 48.3 | 0.00 | 0.00 | 0.94 | 96 | 1008.0 |
| 20260501225428 | 18 | 3 | 33.8 | 48.3 | 0.00 | 0.00 | 0.94 | 95 | 1007.6 |
| 20260501224749 | 18 | 5 | 29.0 | 56.3 | 0.00 | 0.00 | 0.94 | 94 | 1008.3 |
| 20260501223858 | 18 | 17 | 41.8 | 54.7 | 0.00 | 0.00 | 0.94 | 94 | 1007.6 |
| 20260501223218 | 18 | 15 | 40.2 | 53.1 | 0.00 | 0.00 | 0.94 | 94 | 1007.6 |
| 20260501222751 | 18 | 16 | 38.6 | 54.7 | 0.00 | 0.00 | 0.94 | 94 | 1008.0 |
| 20260501221858 | 18 | 14 | 41.8 | 54.7 | 0.00 | 0.00 | 0.94 | 94 | 1008.6 |
| 20260501221218 | 18 | 11 | 45.1 | 51.5 | 0.00 | 0.00 | 0.91 | 96 | 1008.3 |
| 20260501220748 | 18 | 10 | 37.0 | 48.3 | 0.00 | 0.00 | 0.91 | 97 | 1009.0 |
| 20260501215218 | 18 | 356 | 25.7 | 57.9 | 0.00 | 0.00 | 0.91 | 96 | 1008.3 |
| 20260501214538 | 18 | 11 | 40.2 | 57.9 | 0.00 | 0.00 | 0.91 | 97 | 1007.3 |
| 20260501213858 | 18 | 9 | 40.2 | 57.9 | 0.00 | 0.00 | 0.91 | 97 | 1007.3 |
| 20260501213218 | 18 | 11 | 46.7 | 57.9 | 0.00 | 0.00 | 0.91 | 97 | 1007.6 |
| 20260501212538 | 18 | 356 | 30.6 | 48.3 | 0.00 | 0.00 | 0.86 | 95 | 1008.6 |
| 20260501211858 | 19 | 1 | 33.8 | 48.3 | 0.00 | 0.00 | 0.86 | 95 | 1008.6 |
| 20260501211218 | 19 | 20 | 33.8 | 46.7 | 0.00 | 0.00 | 0.48 | 92 | 1008.6 |
| 20260501210538 | 19 | 1 | 27.4 | 53.1 | 0.00 | 0.00 | 0.43 | 93 | 1010.0 |
| 20260501205858 | 19 | 20 | 35.4 | 51.5 | 0.00 | 0.00 | 0.43 | 93 | 1007.6 |
| 20260501205218 | 19 | 25 | 35.4 | 51.5 | 0.00 | 0.00 | 0.43 | 93 | 1007.3 |
| 20260501204538 | 19 | 20 | 38.6 | 56.3 | 0.00 | 0.00 | 0.43 | 92 | 1007.3 |
| 20260501203858 | 19 | 21 | 38.6 | 56.3 | 0.00 | 0.00 | 0.43 | 93 | 1007.3 |
| 20260501203218 | 19 | 17 | 43.5 | 56.3 | 0.00 | 0.00 | 0.43 | 93 | 1007.0 |
| 20260501202538 | 19 | 23 | 40.2 | 56.3 | 0.00 | 0.00 | 0.43 | 93 | 1007.0 |
| 20260501201858 | 19 | 24 | 38.6 | 62.8 | 0.00 | 0.00 | 0.43 | 93 | 1007.0 |
| 20260501201218 | 19 | 21 | 41.8 | 56.3 | 0.00 | 0.00 | 0.43 | 94 | 1006.6 |
| 20260501200749 | 19 | 25 | 37.0 | 56.3 | 0.00 | 0.00 | 0.43 | 94 | 1007.0 |
| 20260501200110 | 19 | 17 | 41.8 | 59.5 | 0.00 | 0.00 | 0.43 | 93 | 1007.6 |
| 20260501195218 | 19 | 21 | 43.5 | 59.5 | 0.00 | 0.00 | 0.43 | 94 | 1007.6 |
| 20260501194751 | 19 | 24 | 35.4 | 53.1 | 0.00 | 0.00 | 0.43 | 95 | 1007.3 |
| 20260501193859 | 19 | 28 | 38.6 | 53.1 | 0.00 | 0.00 | 0.43 | 96 | 1007.3 |
| 20260501193218 | 19 | 30 | 29.0 | 38.6 | 0.00 | 0.00 | 0.43 | 97 | 1007.6 |
| 20260501192538 | 20 | 33 | 30.6 | 41.8 | 0.00 | 0.00 | 0.43 | 96 | 1007.6 |
| 20260501191858 | 20 | 26 | 32.2 | 43.5 | 0.00 | 0.00 | 0.43 | 95 | 1008.0 |
| 20260501191218 | 20 | 19 | 29.0 | 48.3 | 0.00 | 0.00 | 0.43 | 94 | 1008.3 |
| 20260501190538 | 20 | 17 | 35.4 | 48.3 | 0.00 | 0.00 | 0.43 | 93 | 1008.0 |
| 20260501185858 | 19 | 18 | 32.2 | 46.7 | 0.00 | 0.00 | 0.43 | 92 | 1008.0 |
| 20260501185431 | 19 | 18 | 32.2 | 46.7 | 0.00 | 0.00 | 0.43 | 92 | 1008.6 |
| 20260501184538 | 18 | 11 | 27.4 | 45.1 | 0.00 | 0.00 | 0.43 | 92 | 1008.3 |
| 20260501183858 | 18 | 8 | 33.8 | 45.1 | 0.00 | 0.00 | 0.43 | 91 | 1008.3 |
| 20260501183218 | 18 | 3 | 29.0 | 37.0 | 0.00 | 0.00 | 0.43 | 90 | 1008.6 |
| 20260501182538 | 18 | 7 | 25.7 | 37.0 | 0.00 | 0.00 | 0.43 | 89 | 1009.0 |
| 20260501181858 | 19 | 9 | 27.4 | 37.0 | 0.00 | 0.00 | 0.43 | 88 | 1009.0 |
| 20260501181430 | 19 | 6 | 29.0 | 37.0 | 0.00 | 0.00 | 0.41 | 88 | 1008.6 |
| 20260501180538 | 18 | 9 | 25.7 | 49.9 | 0.00 | 0.00 | 0.41 | 91 | 1009.0 |
| 20260501175858 | 18 | 358 | 35.4 | 49.9 | 0.00 | 0.00 | 0.41 | 92 | 1008.6 |
| 20260501175218 | 18 | 359 | 37.0 | 48.3 | 0.00 | 0.00 | 0.41 | 94 | 1008.6 |
| 20260501174538 | 18 | 3 | 37.0 | 46.7 | 0.00 | 0.00 | 0.41 | 94 | 1008.6 |
| 20260501173858 | 18 | 5 | 40.2 | 48.3 | 0.00 | 0.00 | 0.41 | 94 | 1008.3 |
| 20260501173218 | 18 | 358 | 38.6 | 48.3 | 0.00 | 0.00 | 0.41 | 92 | 1008.6 |
| 20260501172538 | 19 | 352 | 37.0 | 46.7 | 0.00 | 0.00 | 0.41 | 93 | 1009.3 |
| 20260501171858 | 19 | 353 | 35.4 | 48.3 | 0.00 | 0.00 | 0.41 | 93 | 1009.3 |
| 20260501171430 | 20 | 351 | 33.8 | 48.3 | 0.00 | 0.00 | 0.41 | 94 | 1009.3 |
| 20260501170538 | 20 | 345 | 40.2 | 48.3 | 0.00 | 0.00 | 0.41 | 93 | 1009.3 |
| 20260501170112 | 20 | 354 | 35.4 | 48.3 | 0.00 | 0.00 | 0.41 | 94 | 1009.7 |
| 20260501165218 | 20 | 10 | 38.6 | 48.3 | 0.00 | 0.00 | 0.41 | 95 | 1009.3 |
| 20260501164538 | 20 | 11 | 32.2 | 40.2 | 0.00 | 0.00 | 0.41 | 95 | 1009.3 |
| 20260501163858 | 20 | 8 | 27.4 | 40.2 | 0.00 | 0.00 | 0.41 | 96 | 1009.3 |
| 20260501163429 | 20 | 8 | 32.2 | 38.6 | 0.00 | 0.00 | 0.41 | 94 | 1009.3 |